This is the latest recevied weather packets stored in our database for station/object K5GHS-1. If no packets are shown the sender has not sent any weather packets the latest 10 day(s).
| Time | Temp. | Humidity | Pressure | Rain* | Wind** | Luminosity | Snow |
|---|---|---|---|---|---|---|---|
| 1788645985 | 38.33° C | 38% | 1009.4 hPa | 0 mm | - | 313 W/m² | - |
| 1788645681 | 37.78° C | 39% | 1009.4 hPa | 0 mm | - | 352 W/m² | - |
| 1788645380 | 38.33° C | 39% | 1009.5 hPa | 0 mm | - | 413 W/m² | - |
| 1788645076 | 38.33° C | 38% | 1009.7 hPa | 0 mm | - | 406 W/m² | - |
| 1788644772 | 38.33° C | 37% | 1009.6 hPa | 0 mm | - | 380 W/m² | - |
| 1788644472 | 38.33° C | 38% | 1009.5 hPa | 0 mm | - | 390 W/m² | - |
| 1788644167 | 38.33° C | 38% | 1009.7 hPa | 0 mm | - | 418 W/m² | - |
| 1788643862 | 38.33° C | 37% | 1009.7 hPa | 0 mm | - | 431 W/m² | - |
| 1788643557 | 37.78° C | 38% | 1009.8 hPa | 0 mm | - | 455 W/m² | - |
| 1788643257 | 38.89° C | 37% | 1009.7 hPa | 0 mm | - | 457 W/m² | - |
| 1788642954 | 38.33° C | 38% | 1010.1 hPa | 0 mm | - | 452 W/m² | - |
| 1788642648 | 37.22° C | 39% | 1009.9 hPa | 0 mm | - | 443 W/m² | - |
| 1788642343 | 37.78° C | 40% | 1010.2 hPa | 0 mm | - | 52 W/m² | - |
| 1788642038 | 37.78° C | 40% | 1010 hPa | 0 mm | - | 474 W/m² | - |
| 1788641737 | 37.78° C | 41% | 1009.9 hPa | 0 mm | - | 515 W/m² | - |
| 1788641437 | 38.89° C | 39% | 1010.3 hPa | 0 mm | - | 209 W/m² | - |
| 1788641132 | 37.78° C | 40% | 1010.3 hPa | 0 mm | - | 517 W/m² | - |
| 1788640827 | 38.33° C | 40% | 1010.5 hPa | 0 mm | - | 498 W/m² | - |
| 1788640526 | 38.33° C | 40% | 1010.4 hPa | 0 mm | - | 522 W/m² | - |
| 1788640222 | 38.33° C | 40% | 1010.6 hPa | 0 mm | - | 538 W/m² | - |
| 1788639917 | 37.78° C | 41% | 1010.5 hPa | 0 mm | - | 550 W/m² | - |
| 1788639613 | 37.78° C | 41% | 1010.7 hPa | 0 mm | - | 559 W/m² | - |
| 1788639309 | 37.78° C | 41% | 1010.8 hPa | 0 mm | - | 557 W/m² | - |
| 1788639008 | 37.78° C | 40% | 1010.9 hPa | 0 mm | - | 536 W/m² | - |
| 1788638704 | 38.33° C | 39% | 1010.9 hPa | 0 mm | - | 567 W/m² | - |
* Rain latest hour (hover to see other rain measurements)
** Current wind speed in m/s (hover to see current wind gust speed)